AEHF-3 (USA 246)

Last updated on Thu Oct 30 2025 00:02:49 GMT+0000 (Coordinated Universal Time)

1 39256U 13050A 25302.52757491 .00000042 00000+0 00000+0 0 9990 2 39256 4.7199 69.2472 0094481 181.6043 213.0646 1.00265919 43345
UTC large
Height (km)
Speed (km/s)
/
Latitude / Longitude
Inclination (degrees)
Orbital Period (minutes)
Azimuth
Elevation
Range (km)
Doppler Factor

Next 0 passes for location: London (51.5072 / 0.1276)

Sorry there are no passes over London.